GSAT0207 (GALILEO 15) (41859 NORAD) Tracking and Keplerian Element Data

This shows tracking and keplerian element data for the satellite.

Feedback or suggestion? Click here.




ElementValue
Catalog41859
NameGSAT0207 (GALILEO 15)
Epoch Orbit1231
Epoch Day318.72388972
Epoch Year2018
RAAN177.9866
Inclination54.585
Eccentricity0.0002954
Argument of Perigee307.6645
Mean Anonmoly52.3972
Mean Motion1.70473312
Decay Rate4.6E-07
L11 41859U 16069A 18318.72388972 .00000046 00000-0 00000-0 0 9996
L22 41859 54.5850 177.9866 0002954 307.6645 52.3972 1.70473312 12314

Live tracking and technical data element details for GSAT0207 (GALILEO 15) (NORAD 41859). GSAT0207 (GALILEO 15) can be tracked NOW for your location showing map with azimuth and elevation plus other details from your city location.

Track the satellite on the map from your city or location and see movement details for azimuth, elevation, latitude, longitude, range, height, and movement on the map or in text.







IsCatalogInMostPopularTable: catalog: 41859, numindb: 131
Update: records affected: 1



GetName: 41859 GSAT0207 (GALILEO 15)

Hit Count: updated at: Fri, 16 Nov 2018 12:28:46 GMT